Location: Newark
(43.9494°N, 6.8108°E)
Time: 01:57:02
(UTC+00:00)

A-11 Canister half - Pass Details

Date: 24 October 2019
Orbit: 1514 x 1686 km, 47.2° (Epoch: 16 November)

Event Time Altitude Azimuth Distance (km) Brightness Sun altitude
Rises 06:26:32 0° 294° (WNW) 4,816 10.9 4.0°
Reaches altitude 10° 06:29:44 10° 291° (WNW) 3,805 10.4 4.6°
Maximum altitude 06:39:04 59° 215° (SW) 1,756 9.4 6.1°
Drops below altitude 10° 06:48:07 10° 139° (SE) 3,682 12.4 7.6°
Sets 06:51:10 0° 136° (SE) 4,652 13.1 8.1°
